Location: Ridings
(33.6995°N, 96.1844°W)
Time: 00:50:40
(UTC+00:00)

Daily predictions for brighter satellites

Satellite Brightness Start Highest point End
(mag) Time Altitude Azimuth Time Altitude Azimuth Time Altitude Azimuth
Delta 168 4.5 02:01:45 10° WSW 02:06:30 38° S 02:13:22 10° ESE
Centaur AC-119 4.4 02:03:00 10° SSW 02:06:51 30° SE 02:16:22 10° E
USA 234 3.4 02:02:11 10° NE 02:08:32 52° SE 02:14:50 10° SSW
DELTA 2 R/B (1) 4.2 02:05:13 10° WNW 02:10:34 47° SSW 02:15:54 10° SE
OAO 1 Rocket 4.5 02:07:25 10° W 02:12:46 81° SSW 02:18:07 10° ESE
Resurs 01 Rocket 1.7 02:10:19 10° SSE 02:14:39 60° ENE 02:18:59 10° N
SJ-6B 4.2 02:15:51 10° SSW 02:19:10 35° W 02:22:31 10° NNW
Cosmos 2026 Rocket 4.0 02:13:52 10° S 02:20:03 85° E 02:26:11 10° N
Lacrosse 5 rocket 3.1 02:22:32 10° WNW 02:26:01 26° WSW 02:29:23 10° S
Cosmos 1470 4.2 02:24:48 10° NNE 02:27:35 20° ENE 02:29:33 14° ESE
CZ-4 R/B 2.8 02:25:29 10° SSW 02:29:08 37° W 02:32:51 10° NNW
OPS 6432 4.4 02:27:00 10° NNW 02:30:06 67° ENE 02:32:55 15° SE
CZ-4B R/B 3.3 02:25:03 10° S 02:30:18 77° WSW 02:35:38 10° NNW
KORONAS-FOTON 3.9 02:29:00 10° S 02:32:35 50° E 02:36:12 10° NNE
Cosmos 1328 Rocket 4.5 02:28:27 10° SSW 02:32:36 49° W 02:36:45 10° N
Cosmos 1842 3.0 02:34:38 10° S 02:38:15 68° E 02:41:53 10° NNE
IRIDIUM 106 4.4 02:36:48 10° N 02:41:58 62° E 02:46:58 11° SSE
Cosmos 540 Rocket 4.0 02:46:21 10° N 02:51:15 43° ENE 02:54:15 21° SE
Meteosat 1 Rocket2 4.5 02:48:08 10° W 02:53:18 44° S 02:58:24 19° SE
USA 186 4.3 02:54:17 10° SW 02:56:48 20° W 02:59:19 10° NW
Cosmos 2082 Rocket 4.1 02:52:30 10° SW 02:57:34 33° WNW 03:02:40 10° N
SL-16 R/B 3.5 02:55:50 10° N 03:00:30 26° ENE 03:03:14 18° E
Okean-O 2.5 02:58:43 20° SSE 03:01:45 81° ENE 03:06:10 10° N
Cosmos 2333 Rocket 4.4 03:00:14 10° NNE 03:02:11 12° NE 03:04:07 10° ENE
MOS 1-B Rocket 4.5 02:55:56 10° S 03:02:17 59° WSW 03:07:58 10° NNW
Cosmos 1707 2.7 02:59:38 10° SSW 03:03:13 70° W 03:06:49 10° N
Cosmos 1515 Rocket 4.4 03:00:22 10° SSW 03:04:31 49° W 03:08:44 10° N
Cosmos 2369 3.7 02:58:49 10° NNW 03:04:34 84° WSW 03:08:36 20° SSE
SeaSat 1 3.7 03:02:21 19° E 03:04:44 28° ENE 03:08:52 10° N
Atlas Centaur 2 3.0 02:59:42 10° W 03:07:44 71° S 03:14:19 18° ESE
USA 245 4.1 03:10:21 26° E 03:10:50 28° ENE 03:14:10 10° N
CZ-4C R/B 3.9 03:09:32 10° N 03:13:38 61° WNW 03:17:39 10° SSW
SPOT 5 2.5 03:14:18 31° SSE 03:16:18 77° ENE 03:20:39 10° N
IRS-1A Rocket 4.3 03:14:38 28° SE 03:17:34 63° ENE 03:22:59 10° N
SL-08 ROCKET BODY 4.5 03:14:48 21° SSE 03:18:53 61° E 03:24:52 10° NNE
Cosmos 2228 Rocket 3.9 03:18:36 31° ESE 03:19:14 33° E 03:23:18 10° NNE
MetOp-B 4.1 03:16:28 26° SSE 03:19:36 83° ENE 03:24:58 10° N
Okean O Rocket 3.4 03:18:13 10° SSW 03:21:58 28° W 03:25:44 10° NW
Tiangong -1.5 03:19:05 10° NW 03:22:10 48° NNE 03:22:45 41° ENE
Cosmos 1356 Rocket 4.0 03:25:55 36° E 03:26:00 36° E 03:29:52 10° NNE
ASTRO E2 3.5 03:23:22 10° WSW 03:25:30 29° SSW 03:25:30 29° SSW
Cosmos 1553 Rocket 4.2 03:22:16 10° N 03:28:26 71° W 03:33:02 19° S
Cosmos 1869 Rocket 3.6 03:24:42 10° N 03:29:08 64° E 03:30:18 45° SE
Cosmos 1400 Rocket 2.6 03:28:43 41° S 03:30:00 87° E 03:33:53 10° N
S3M 4.1 03:25:42 10° N 03:31:58 62° E 03:34:41 34° SSE
ERS-1 Rocket 2.9 03:30:43 39° SSE 03:32:34 70° ENE 03:37:34 10° N
Cosmos 2266 Rocket 4.0 03:30:54 18° S 03:35:43 87° W 03:42:08 10° N
Cosmos 1655 Rocket 4.0 03:34:27 31° SSE 03:37:36 65° E 03:43:56 10° NNE
ATLAS CENTAUR R/B 1.3 03:36:30 22° SW 03:38:30 61° WNW 03:42:00 10° NNE
Meteor 1-22 Rocket 4.3 03:34:01 10° N 03:39:44 68° E 03:41:50 40° SSE
Cosmos 841 Rocket 3.8 03:35:36 10° N 03:40:45 52° ENE 03:41:59 43° ESE
Cosmos 1980 Rocket 3.8 03:37:04 10° NW 03:41:44 27° WSW 03:45:44 13° SSW
Cosmos 2322 Rocket 3.0 03:38:20 10° N 03:43:33 36° ENE 03:44:58 31° E
Spot 2 Rocket 3.5 03:42:27 47° SE 03:43:45 65° ENE 03:48:47 10° N
Cosmos 1300 3.9 03:40:53 10° NNE 03:43:15 28° NE 03:43:15 28° NE
Cosmos 1441 Rocket 3.6 03:41:22 10° NNW 03:44:54 52° W 03:45:27 47° SW
Cosmos 1908 4.3 03:49:30 10° NNW 03:52:48 35° W 03:53:29 32° WSW
Cosmos 1862 Rocket 3.6 03:55:14 61° E 03:55:14 61° E 03:59:26 10° NNE
Cosmos 2278 3.7 03:49:42 10° NNW 03:55:25 80° WSW 03:57:04 48° S
Meteor 2-10 Rocket 3.5 03:49:59 10° N 03:55:29 69° E 03:56:28 56° SE
Meteor 1-21 4.2 03:54:03 47° SSE 03:55:42 71° E 04:01:29 10° NNE
Terra 1.8 03:54:54 56° S 03:55:52 79° WSW 04:00:35 10° NNW
Cosmos 883 Rocket 4.4 03:55:01 10° N 04:01:22 80° E 04:03:16 48° SSE
Landsat 5 3.5 04:02:19 10° NNE 04:05:57 69° NE 04:05:57 69° NE
Okean 3 3.8 04:08:31 54° NE 04:08:31 54° NE 04:11:52 10° NNE
Ariane Rocket 3.0 04:07:33 59° SSW 04:08:27 75° WSW 04:13:33 10° NNW
Cosmos 2219 Rocket 3.7 04:04:35 10° N 04:09:01 23° ENE 04:09:56 22° ENE
Cosmos 2237 4.4 04:05:18 10° NNW 04:10:58 66° WSW 04:12:12 52° SSW
SL-14 R/B 4.1 04:12:43 43° W 04:12:47 43° W 04:16:25 10° N
Cosmos 1707 Rocket 3.9 04:15:11 55° WSW 04:15:39 58° W 04:20:02 10° N
SJ 16-02 1.4 04:16:45 69° N 04:16:45 69° N 04:20:37 10° NNE
COSMOS 2455 4.4 04:24:43 21° ENE 04:24:43 21° ENE 04:27:17 10° NE
Cosmos 1346 Rocket 3.7 04:23:29 10° NNW 04:26:15 45° NNW 04:26:15 45° NNW
Cosmos 2315 Rocket 4.2 04:21:37 10° NNW 04:27:57 68° W 04:29:33 50° SSW
ARIANE 5 R/B 4.4 04:31:12 22° NE 04:31:12 22° NE 04:33:36 10° NNE
RESURS DK-1 3.3 04:28:10 10° NNW 04:31:10 45° NW 04:31:10 45° NW
SPOT 3 Rocket 4.1 04:32:13 45° WSW 04:32:47 47° W 04:37:44 10° NNW
Cosmos 2360 Rocket 2.1 04:28:11 10° NNW 04:33:52 76° ENE 04:34:00 76° E
ATLAS 2AS CENTAUR R/B 2.8 04:29:46 10° NNW 04:36:25 58° ENE 04:37:29 52° E
SeaSat 1 3.6 04:42:03 32° WSW 04:42:03 32° WSW 04:46:23 10° NW
Cosmos 1733 Rocket 4.0 04:39:10 10° NNW 04:42:49 45° WNW 04:42:49 45° WNW
SL-16 R/B 3.1 04:39:26 10° NW 04:44:36 37° WSW 04:45:05 36° WSW
Cosmos 1455 4.5 04:43:00 10° N 04:44:05 18° NNE 04:44:05 18° NNE
USA 281 3.8 04:45:41 39° E 04:46:44 42° ENE 04:52:50 10° N
Okean 1-7 4.0 04:47:57 46° NNW 04:47:57 46° NNW 04:51:09 10° N
Cosmos 2333 Rocket 2.1 04:41:25 10° NNW 04:47:07 87° NNW 04:47:07 87° NNW
CZ-2C R/B 4.1 04:50:23 38° ENE 04:50:23 38° ENE 05:00:31 10° N
GP-B 4.4 04:50:46 10° N 04:53:24 34° NNE 04:53:24 34° NNE
Cosmos 1814 Rocket 4.2 04:50:52 10° NNW 04:55:33 70° NNW 04:55:33 70° NNW
Atlas Centaur 2 3.2 04:48:58 10° W 04:56:31 52° SSW 04:56:31 52° SSW
Cosmos 1745 Rocket 4.0 05:08:42 74° ENE 05:08:42 74° ENE 05:14:44 10° N
Cosmos 839 Rocket 3.9 05:05:47 10° NNW 05:12:09 78° NE 05:12:09 78° NE
Nadezhda 1 Rocket 4.0 05:18:42 10° N 05:24:27 74° NNE 05:24:27 74° NNE
Cosmos 2322 Rocket 3.8 05:22:44 10° NW 05:26:46 25° W 05:26:46 25° W
Cosmos 2297 Rocket 3.3 05:29:40 35° NE 05:29:40 35° NE 05:33:06 10° NNE
CENTAUR R/B 4.3 05:33:37 17° ENE 05:33:37 17° ENE 05:35:26 10° NE
CZ-3 Stage 3 3.6 05:01:41 10° W 05:34:20 69° SSW 05:35:53 62° SSE
Meteor 2-5 Rocket 4.4 05:41:48 51° NE 05:41:48 51° NE 05:46:20 10° NNE
COSMOS 2428 3.2 05:46:44 10° NNW 05:51:11 56° N 05:51:11 56° N
Cosmos 2219 Rocket 3.3 05:47:45 10° NW 05:51:37 36° WNW 05:51:37 36° WNW
Cosmos 2263 Rocket 4.5 06:03:48 13° ENE 06:03:48 13° ENE 06:04:53 10° ENE
COSMOS 2455 3.7 06:07:47 41° WNW 06:08:03 41° WNW 06:13:42 10° N
SL-12 R/B(2) 4.3 06:09:01 59° E 06:09:01 59° E 06:17:17 10° NE
NOSS 0 Rocket 4.2 06:04:39 10° NNW 06:10:02 64° NNE 06:10:02 64° NNE
CZ-4C R/B 3.5 06:13:08 29° NNW 06:13:08 29° NNW 06:16:47 10° NNE
Cosmos 2184 Rocket 4.4 06:22:41 56° NE 06:22:41 56° NE 06:28:01 10° NNE
ATLAS 2AS CENTAUR R/B 4.4 06:21:56 10° WNW 06:24:53 19° W 06:24:53 19° W
USA 281 4.4 06:32:33 28° W 06:32:33 28° W 06:36:55 10° NW
Cosmos 2098 Rocket 4.3 06:26:55 10° N 06:32:30 62° NW 06:32:30 62° NW
Cosmos 2154 Rocket 4.3 06:39:30 60° NE 06:39:30 60° NE 06:44:48 10° NNE
SL-16 R/B 4.0 06:40:55 10° N 06:45:25 23° ENE 06:46:35 22° ENE
SL-4 R/B 4.5 06:43:01 10° NNW 06:45:06 21° N 06:45:06 21° N
Cosmos 2227 Rocket 2.9 06:52:28 48° NNW 06:52:28 48° NNW 06:56:59 10° NNE
Cosmos 2237 Rocket 3.0 06:47:08 10° NNW 06:51:07 47° NNW 06:51:07 47° NNW
H-2A R/B 4.2 06:49:25 10° N 06:51:12 23° NNW 06:51:12 23° NNW
CZ-2D R/B 4.4 07:05:16 10° ENE 07:07:38 14° E 07:07:38 14° E
Cosmos 2297 Rocket 4.1 07:11:26 19° WNW 07:11:57 19° WNW 07:15:52 10° NNW
Cosmos 2219 3.7 07:15:09 55° NNW 07:15:09 55° NNW 07:19:42 10° NNE
CENTAUR R/B 3.2 07:20:44 40° NW 07:20:50 40° NW 07:26:57 10° NNE
Cosmos 2341 Rocket 4.1 07:27:49 64° E 07:27:49 64° E 07:33:46 10° NNE
ADEOS II 4.2 07:30:43 10° NE 07:33:53 16° E 07:34:19 16° E
Cosmos 1937 Rocket 4.0 07:38:33 59° NNE 07:38:33 59° NNE 07:42:48 10° NNE
Cosmos 1339 Rocket 4.4 07:33:37 10° N 07:40:02 86° ENE 07:40:02 86° ENE
Cosmos 1898 Rocket 4.1 07:42:11 51° NNW 07:42:11 51° NNW 07:46:16 10° N
Cosmos 2263 Rocket 2.7 07:45:28 51° NW 07:45:28 51° NW 07:50:21 10° N
Resurs 1-4 Rocket 3.1 07:42:37 10° NNE 07:47:22 37° E 07:47:22 37° E
Cosmos 1821 Rocket 4.4 08:00:01 47° ESE 08:01:01 51° E 08:06:54 10° NNE
Cosmos 2218 Rocket 3.8 08:03:34 79° SW 08:03:52 83° W 08:10:07 10° N
Cosmos 1844 Rocket 3.5 08:04:20 38° ESE 08:04:40 38° ESE 08:09:47 10° NE
Cosmos 2366 rocket 3.9 08:10:21 68° WSW 08:10:42 69° W 08:16:57 10° N
Cosmos 1437 Rocket 4.3 08:12:41 33° ENE 08:12:41 33° ENE 08:15:17 10° NNE
ALOS 4.2 08:09:12 10° NE 08:12:29 19° E 08:13:24 18° ESE
NOSS 3-2 (C) 3.4 08:12:44 55° NW 08:12:44 55° NW 08:18:22 10° NNE
Cosmos 1544 Rocket 4.1 08:14:34 10° N 08:18:04 55° N 08:18:04 55° N
Cosmos 1680 Rocket 3.8 08:14:11 10° N 08:19:21 63° ENE 08:20:14 54° ESE
Cosmos 1818 4.2 08:16:11 10° NNW 08:21:32 54° ENE 08:24:48 23° SE
Cosmos 2228 3.4 08:18:18 10° N 08:21:59 60° NNE 08:21:59 60° NNE
USA 267 3.3 08:16:19 10° NE 08:22:46 62° SE 08:24:01 53° S
MSX 3.6 08:19:13 10° N 08:24:57 81° WNW 08:25:33 71° SW
COSMOS 2441 4.3 08:24:14 10° NNE 08:29:03 72° ESE 08:29:13 71° ESE
SL-16 R/B 3.0 08:24:19 10° NW 08:28:24 36° WNW 08:28:24 36° WNW
SL-16 R/B 3.8 08:29:10 10° SE 08:34:51 38° ENE 08:40:31 10° N
H-2A R/B 4.3 08:32:59 10° N 08:35:54 39° NW 08:35:54 39° NW
IDEFIX/ARIANE 42P 2.9 08:32:57 10° N 08:37:59 48° WNW 08:38:13 48° W
CZ-2C R/B 2.5 08:37:15 59° SSE 08:38:19 87° ENE 08:43:40 10° NNW
SEDSat Delta rocket 4.2 08:41:06 28° ESE 08:41:06 28° ESE 08:43:15 10° E
Mugunghwa Rocket 4.4 08:42:20 42° S 08:42:20 42° S 08:48:16 10° ESE
CZ-2C R/B 2.9 08:38:53 10° N 08:44:12 77° WNW 08:44:53 65° SW
Cosmos 1943 3.3 08:38:51 10° NNW 08:44:27 73° ENE 08:47:43 26° SSE
CZ-2D R/B 2.2 08:43:01 10° N 08:48:13 57° WNW 08:48:55 53° WSW
FENGYUN 3A 3.5 08:46:11 10° NNE 08:51:35 86° WNW 08:52:54 53° SSW
ASTEX 1 3.7 08:52:22 33° SSE 08:54:26 61° E 08:59:13 10° N
Cosmos 1606 Rocket 4.2 08:50:12 10° N 08:54:33 53° E 08:56:15 33° SE
Cosmos 1536 Rocket 4.5 08:55:28 35° WNW 08:55:28 35° WNW 08:59:10 10° NNW
Cosmos 921 Rocket 4.2 08:51:09 10° N 08:55:07 39° ENE 08:57:56 17° SE
Cosmos 1125 Rocket 3.9 08:57:57 35° SSE 08:59:53 56° ESE 09:05:03 10° NNE
Cosmos 1867 4.1 09:01:14 39° W 09:02:33 46° WNW 09:07:50 10° NNE
Cosmos 2239 Rocket 4.4 09:00:57 43° SSW 09:03:01 70° W 09:09:08 10° N
CZ-2C R/B 4.4 09:02:33 10° NE 09:05:53 20° E 09:09:13 10° SE
Cosmos 1727 Rocket 4.0 09:01:29 10° NNW 09:07:43 63° W 09:10:22 35° SSW
Cosmos 1726 Rocket 4.0 09:05:40 10° N 09:10:02 59° E 09:12:35 24° SSE
Cosmos 494 Rocket 4.2 09:06:49 10° NNW 09:12:03 72° ENE 09:17:16 10° SSE
Cosmos 1812 4.1 09:09:50 10° NNE 09:13:05 32° E 09:15:37 14° SE
ADEOS II 2.4 09:08:40 10° N 09:13:42 49° WNW 09:15:11 38° WSW
Cosmos 2058 3.5 09:12:19 30° SSE 09:13:58 49° E 09:17:53 10° NNE
Cosmos 1844 4.0 09:15:24 37° WSW 09:17:24 54° WNW 09:23:05 10° N
IRAS Rocket 4.2 09:12:32 10° NNE 09:18:02 80° ESE 09:20:58 29° S
USA 238 DEB 4.3 09:16:15 26° W 09:18:57 38° NW 09:25:01 10° NNE
USA 238 4.3 09:16:17 26° W 09:18:59 39° NW 09:25:05 10° NNE
Cosmos 1000 Rocket 4.4 09:15:35 10° N 09:21:48 70° W 09:25:45 24° S
SAR-Lupe-4 3.4 09:18:24 10° N 09:21:58 85° WNW 09:22:35 58° SSW
USA 81 4.4 09:19:31 10° N 09:24:45 64° E 09:29:48 11° SSE
ATLAS 5 CENTAUR R/B 2.3 09:25:49 25° SSE 09:26:45 29° ESE 09:29:40 10° NE
Resurs 1-4 Rocket 3.5 09:22:58 10° NNW 09:27:00 23° WNW 09:28:26 20° W
Timation 2 Rocket 4.1 09:23:52 28° SSW 09:27:40 87° WNW 09:34:10 10° NNE
Iridium 4 Rocket 3.9 09:24:57 10° N 09:29:27 55° E 09:34:19 10° SSE
UNK 4.0 09:25:32 10° SSE 09:30:06 70° ENE 09:34:41 10° N
Meteor 1-28 Rocket 3.4 09:35:43 41° WSW 09:35:58 41° W 09:39:21 10° NNW
Delta 142 4.5 09:40:12 27° WSW 09:42:26 42° S 09:48:23 10° ESE
Cosmos 1544 2.1 09:42:30 55° S 09:42:59 84° E 09:45:35 10° N
NOSS 2-3 (D) 4.2 09:42:01 20° S 09:44:09 38° ESE 09:47:36 10° NE
Cosmos 1892 Rocket 4.2 09:42:42 29° WSW 09:44:10 38° W 09:48:17 10° N
Cosmos 1535 Rocket 4.4 09:39:57 18° SSW 09:44:40 76° W 09:50:50 10° N
Delta 2 Rocket 3.3 09:43:07 15° WNW 09:46:21 87° NNE 09:50:45 10° ESE
NOAA 11 4.2 09:41:31 10° NNE 09:47:01 83° ESE 09:51:42 14° S
Cosmos 2058 Rocket 3.1 09:43:53 10° N 09:48:19 84° E 09:52:41 10° S
Cosmos 1844 Rocket 4.0 09:45:59 18° W 09:48:35 24° WNW 09:53:05 10° N
ALOS 3.1 09:45:34 10° N 09:49:41 33° WNW 09:51:42 23° WSW
Cosmos 2298 Rocket 4.0 09:49:11 19° SSW 09:53:02 84° WNW 09:58:23 10° NNE
METEOR-M 4.1 09:48:54 10° N 09:54:14 76° WNW 09:58:36 16° SSW
BREEZE-M DEB (TANK) 3.5 09:54:25 24° WSW 09:56:24 71° NW 10:05:56 10° NE
Cosmos 1607 3.9 09:54:48 10° NNW 10:01:12 87° WSW 10:07:25 10° SSE
NOSS 2-2 (C) 3.0 10:00:13 24° SW 10:02:05 58° WNW 10:05:10 10° NNE
Cosmos 1605 Rocket 4.0 09:57:05 13° SSW 10:02:33 65° W 10:08:40 10° N
USA 267 4.3 09:59:41 10° NNE 10:05:28 35° NW 10:11:15 10° W
Cosmos 2278 Rocket 3.6 10:05:44 10° SSE 10:10:48 35° ESE 10:15:54 10° NE
NOSS 2-2 (D) 2.8 10:08:13 18° SSW 10:10:50 83° WNW 10:14:01 10° NNE
Cosmos 1626 Rocket 3.6 10:06:56 12° SSW 10:10:55 65° W 10:15:19 10° N
CZ-4 R/B 4.2 10:06:08 10° N 10:10:56 54° WNW 10:15:17 13° SSW
NOSS 2-3 (E) 3.0 10:08:40 18° SW 10:11:18 79° WNW 10:15:02 10° NNE
H-2A R/B 3.3 10:09:45 10° NNE 10:14:43 41° E 10:19:31 10° SSE
NOSS 2-3 (C) 3.1 10:13:55 16° SW 10:16:40 67° WNW 10:20:22 10° NNE
SL-16 R/B 3.4 10:13:12 10° SSW 10:18:23 29° W 10:23:42 10° NW
Cosmos 1862 3.8 10:14:50 10° S 10:18:33 58° E 10:22:17 10° NNE
IRS-1D 3.5 10:16:10 10° N 10:21:19 78° WNW 10:26:19 10° SSW
Cosmos 1271 Rocket 2.7 10:18:26 10° S 10:21:59 74° E 10:25:34 10° NNE
SEDSat Delta rocket 2.8 10:21:00 10° W 10:24:58 62° S 10:29:02 10° ESE
Cosmos 1484 Rocket 4.1 10:26:47 10° NNE 10:30:22 39° E 10:33:55 10° S
Envisat 4.1 10:29:44 10° NNW 10:33:59 28° WNW 10:38:14 10° SW
USA 234 4.5 10:30:31 10° ESE 10:36:44 48° NE 10:42:57 10° NNW
Mugunghwa Rocket 4.4 10:31:22 10° WSW 10:37:31 44° S 10:43:26 10° ESE
Genesis I 4.4 10:35:37 10° NNW 10:39:05 43° ENE 10:42:33 10° SE
Okean 1-7 Rocket 3.8 10:35:21 10° SSW 10:39:45 52° W 10:44:07 10° N
CZ-2C R/B 3.2 10:40:01 10° N 10:44:00 31° WNW 10:48:02 10° SW
Meteor 2-14 Rocket 4.5 10:38:03 10° N 10:44:07 85° W 10:50:10 10° S
